This is the latest recevied weather packets stored in our database for station/object SQ5JP-4. If no packets are shown the sender has not sent any weather packets the latest 10 day(s).
| Time | Temp. | Humidity | Pressure | Rain* | Wind** | Luminosity | Snow |
|---|---|---|---|---|---|---|---|
| 1787840321 | 25.56° C | 81% | 1005.3 hPa | - | - | - | - |
| 1787839421 | 26.11° C | 78% | 1005.4 hPa | - | - | - | - |
| 1787838520 | 28.33° C | 68% | 1005.4 hPa | - | - | - | - |
| 1787837620 | 28.89° C | 66% | 1005.5 hPa | - | - | - | - |
| 1787835823 | 26.11° C | 80% | 1005.7 hPa | - | - | - | - |
| 1787834923 | 25° C | 100% | 1005.8 hPa | - | - | - | - |
| 1787834023 | 26.67° C | 97% | 1005.9 hPa | - | - | - | - |
| 1787833123 | 26.11° C | 85% | 1005.9 hPa | - | - | - | - |
| 1787832223 | 25.56° C | 100% | 1006 hPa | - | - | - | - |
| 1787831322 | 26.11° C | 100% | 1006.1 hPa | - | - | - | - |
| 1787830422 | 24.44° C | 100% | 1006.2 hPa | - | - | - | - |
| 1787829528 | 21.11° C | 100% | 1006.3 hPa | - | - | - | - |
| 1787828622 | 22.78° C | 100% | 1006.4 hPa | - | - | - | - |
| 1787827722 | 23.33° C | 100% | 1006.4 hPa | - | - | - | - |
| 1787826821 | 23.33° C | 100% | 1006.5 hPa | - | - | - | - |
| 1787825921 | 21.67° C | 100% | 1006.4 hPa | - | - | - | - |
| 1787825021 | 22.22° C | 100% | 1006.5 hPa | - | - | - | - |
| 1787824121 | 22.22° C | 100% | 1006.4 hPa | - | - | - | - |
| 1787823221 | 22.22° C | 100% | 1006.4 hPa | - | - | - | - |
| 1787822321 | 21.11° C | 100% | 1006.6 hPa | - | - | - | - |
| 1787821421 | 21.11° C | 100% | 1006.7 hPa | - | - | - | - |
| 1787820521 | 20.56° C | 100% | 1006.6 hPa | - | - | - | - |
| 1787819621 | 20° C | 100% | 1006.6 hPa | - | - | - | - |
| 1787818721 | 19.44° C | 100% | 1006.7 hPa | - | - | - | - |
| 1787817820 | 18.89° C | 100% | 1006.3 hPa | - | - | - | - |
* Rain since midnight (hover to see other rain measurements)
** Current wind speed in m/s (hover to see current wind gust speed)